Temperature
30 30 30 31 32 32 32 31 31 31 32 31 30 30 29 28 27 26 24 22 21 20 19 19 19 19 18 18 18 18 18 18 18 18 17 17 17 17 17 17 17 16 16 16
30 30 31 32 32 32 31 31 31 31 32 31 30 30 29 28 27 26 24 23 21 20 20 19 19 18 18 18 18 18 18 18 18 18 17 17 17 17 17 17 17 16 16 16
30 31 33 32 32 31 31 31 31 31 32 32 30 29 28 27 27 26 25 23 22 21 20 19 19 18 18 18 18 18 18 18 18 17 17 17 17 17 17 17 16 16 16 15
31 32 32 32 32 32 31 32 31 31 30 29 29 27 26 27 27 26 25 24 23 21 20 19 19 18 18 18 18 18 18 18 17 17 17 17 17 17 17 17 16 16 16 15
31 32 32 31 32 32 31 32 31 30 28 27 26 27 27 27 27 27 26 24 23 21 20 19 19 19 18 18 18 18 18 18 17 17 17 17 17 17 17 17 16 16 16 16
31 33 33 32 33 33 32 32 31 29 25 22 24 26 27 28 28 27 26 25 23 22 21 20 19 19 18 18 18 18 18 17 17 17 17 17 17 17 17 17 17 16 16 16
30 31 33 33 32 32 32 30 28 27 24 23 26 27 27 29 29 28 27 25 23 22 21 20 19 19 19 18 18 18 18 18 18 18 17 17 17 17 17 17 17 17 16 16
29 30 32 32 31 31 31 30 28 26 27 27 27 26 27 29 29 28 27 25 24 23 22 21 20 19 19 18 18 18 18 18 18 18 18 18 17 17 17 17 17 17 17 17
30 30 32 32 33 32 31 30 31 28 28 27 26 26 26 27 28 28 27 26 25 24 22 21 21 20 19 19 19 18 18 18 18 18 18 18 18 18 17 17 17 17 17 17
31 30 31 32 32 32 32 31 30 29 27 26 26 25 24 25 27 27 27 26 25 24 23 22 21 20 20 19 19 19 18 18 18 18 18 18 18 18 18 17 17 17 17 17
31 30 30 31 30 29 30 29 29 29 29 27 26 25 26 26 27 28 28 27 26 25 24 23 22 21 21 20 19 19 18 18 18 18 18 18 18 18 18 18 18 17 17 17
32 31 30 30 31 30 29 29 29 28 27 28 27 26 27 27 28 28 28 27 26 25 24 24 23 22 21 21 20 19 19 18 18 18 18 18 18 18 18 18 18 18 18 18
31 30 28 29 29 27 27 28 28 28 28 28 27 26 27 27 27 26 27 26 26 25 25 24 23 22 22 21 21 20 19 19 19 18 18 18 18 18 18 18 18 18 18 18
31 30 29 28 27 25 24 26 27 27 27 27 27 26 25 26 26 25 26 25 25 25 24 24 23 22 22 21 21 21 20 19 19 19 19 19 19 18 18 18 18 18 18 18
30 29 29 30 29 28 27 27 28 27 28 28 28 27 26 25 25 24 25 25 24 24 23 23 22 22 21 21 21 21 20 20 20 19 19 19 19 18 18 18 18 18 17 17
29 29 29 29 29 29 28 29 29 28 29 29 29 27 26 25 24 24 24 24 23 23 23 22 22 22 21 21 21 21 20 20 20 20 19 19 19 18 18 18 18 17 17 17
26 26 27 27 29 28 27 29 29 29 30 29 28 26 25 24 24 23 23 23 22 21 21 21 21 21 21 20 20 20 20 20 20 20 19 19 19 18 18 17 17 17 17 17
22 23 25 27 27 25 27 29 29 29 29 29 27 26 25 23 22 22 22 21 20 20 19 19 19 19 19 19 19 19 19 19 19 19 18 18 18 17 17 17 17 16 16 16
22 22 24 26 26 26 26 26 27 27 27 28 26 25 23 22 21 20 20 19 19 18 18 18 18 18 18 18 18 18 18 18 18 17 17 17 16 16 16 16 16 16 15 15
22 22 23 25 25 24 25 25 26 27 25 27 25 24 23 22 22 20 18 18 17 17 16 16 16 17 17 17 17 17 16 16 16 16 15 15 15 15 15 15 15 15 14 14
22 22 23 25 25 25 24 24 25 24 23 25 24 23 23 23 21 18 17 16 16 15 15 15 16 15 15 15 16 16 15 15 14 14 14 14 14 14 14 14 14 14 13 13
21 22 23 24 24 22 22 22 22 22 23 24 23 22 21 19 18 17 16 16 15 15 15 15 15 14 14 14 14 14 14 13 13 13 13 13 13 13 13 13 13 13 13 13
18 19 20 21 21 21 20 20 21 23 23 23 23 21 20 18 17 17 16 15 15 14 14 14 14 13 13 13 13 13 12 12 12 12 12 12 12 12 12 12 12 12 12 12
17 18 19 19 19 20 20 21 22 23 23 22 21 20 19 18 17 16 15 15 14 14 14 13 13 13 12 12 12 12 12 12 12 11 11 12 12 12 11 11 11 11 11 11
18 19 19 19 19 20 20 21 22 22 22 21 20 19 18 17 17 16 15 14 14 14 13 13 13 12 12 11 11 11 11 11 11 11 11 11 11 11 11 11 11 11 11 10
20 19 19 19 20 20 20 21 21 21 20 20 19 18 17 17 16 15 15 14 14 13 13 13 12 12 12 11 11 11 11 11 11 11 11 11 11 11 11 11 11 11 10 10
Wind_Speed
15 14 14 12 11 11 13 14 14 12 7 8 8 6 4 7 6 7 8 10 12 11 11 10 10 10 11 10 9 9 10 9 8 6 6 5 5 4 4 6 7 5 4 3
16 18 18 14 11 12 14 15 14 11 8 9 9 7 5 7 7 8 9 11 12 12 11 11 10 10 11 11 11 10 11 10 9 7 5 5 5 4 4 5 6 6 5 3
20 17 14 12 12 14 14 13 13 14 14 12 10 5 7 7 7 10 11 11 12 14 13 12 12 12 12 12 12 11 11 11 9 9 6 5 4 3 4 6 5 4 5 3
20 19 16 14 13 14 14 12 14 15 15 10 8 4 6 8 9 10 11 11 12 12 13 13 13 13 13 13 12 11 11 11 10 9 8 8 6 5 6 5 5 5 5 5
20 19 16 15 13 13 14 15 16 14 12 10 10 7 6 8 7 10 11 12 12 13 13 13 13 12 13 13 12 11 11 11 10 9 9 8 6 5 5 6 7 6 5 5
23 20 18 16 14 13 12 14 16 9 4 4 12 11 5 4 4 7 11 12 12 13 13 13 13 12 12 12 13 13 12 11 11 10 9 8 7 5 5 6 7 6 5 5
23 23 21 17 16 14 11 11 11 8 1 5 12 7 5 6 6 7 11 12 12 13 13 13 14 14 13 13 13 13 13 12 12 11 10 9 7 6 5 5 7 6 5 6
20 18 16 16 16 14 11 11 10 11 12 8 4 2 4 7 7 8 11 13 13 14 14 14 15 14 13 13 13 14 14 13 12 11 9 9 8 6 6 7 5 6 4 5
19 16 12 13 15 14 11 11 10 10 13 10 3 1 5 5 5 7 11 12 12 13 15 15 15 15 14 13 13 13 14 12 12 11 10 9 9 8 7 7 7 5 4 5
22 18 14 11 11 12 11 10 8 8 7 8 3 3 1 2 4 6 9 12 12 13 14 15 15 15 15 14 12 12 13 12 12 12 11 11 10 9 7 6 7 5 5 4
22 20 17 11 12 11 8 10 9 8 7 8 6 1 5 4 5 7 8 11 12 13 14 14 13 14 14 15 14 12 13 12 12 12 11 10 10 10 9 7 7 6 6 6
18 15 15 14 10 7 9 11 10 8 8 9 8 2 3 2 4 5 8 9 9 10 12 13 13 13 13 14 15 14 13 14 13 12 11 10 9 9 9 10 9 8 8 7
12 12 14 15 8 3 7 10 9 7 8 9 8 1 2 2 4 4 7 8 8 8 10 11 12 12 12 12 13 14 14 14 14 13 12 11 11 10 10 9 9 9 9 8
10 11 14 15 6 5 6 12 11 8 9 9 5 2 5 4 4 4 6 7 7 8 8 9 9 9 9 9 9 10 11 11 12 12 12 11 11 10 10 9 9 9 9 9
12 14 16 16 10 10 12 14 12 12 12 11 6 3 6 6 8 6 6 7 8 8 8 8 8 7 6 7 7 8 8 8 8 8 8 9 9 8 8 8 8 8 9 10
10 13 14 14 13 12 13 13 11 12 12 10 6 2 8 10 8 7 7 8 8 8 7 7 8 8 7 6 6 6 6 6 6 7 6 5 5 4 4 5 5 6 7 7
8 10 13 13 13 12 14 12 12 12 10 6 3 7 12 11 9 8 8 10 10 10 9 9 8 8 6 6 5 5 4 4 4 4 3 2 3 3 2 2 2 2 3 4
7 9 10 13 10 14 9 6 6 6 4 2 7 11 14 13 11 11 10 11 11 11 11 11 11 11 10 10 9 8 8 8 8 7 6 6 5 4 3 3 3 2 1 2
7 8 10 12 13 12 6 3 4 4 3 4 9 12 15 17 15 12 12 13 13 13 12 12 12 13 12 12 11 11 11 10 10 9 8 8 6 5 5 5 4 3 2 2
12 10 12 12 11 9 3 0 3 2 2 6 10 11 15 15 9 9 12 14 15 14 14 14 14 14 14 12 12 13 13 12 11 10 9 8 7 7 7 6 5 4 3 3
13 13 17 15 11 3 3 3 1 3 2 7 9 10 11 8 10 15 15 15 15 14 14 14 14 13 12 11 12 13 12 11 10 9 9 8 7 6 6 6 5 5 5 5
5 8 11 11 10 4 5 5 2 2 4 7 9 12 14 18 20 18 16 15 14 14 14 14 13 12 10 10 11 12 10 9 8 8 8 7 7 7 6 5 4 4 4 5
3 3 1 1 2 5 6 5 3 3 5 8 11 17 19 20 19 18 16 14 14 13 12 12 12 12 10 10 10 10 8 7 7 7 6 5 4 4 3 4 4 4 3 3
3 4 2 3 5 4 3 3 2 4 7 10 14 17 19 19 19 17 15 14 13 12 11 11 11 11 10 9 8 8 7 6 6 5 4 3 2 2 3 3 4 4 5 5
1 1 1 4 2 2 3 3 3 9 11 13 15 16 17 19 18 17 15 13 12 11 11 10 9 9 9 7 6 7 6 5 5 4 4 4 4 3 3 3 3 3 2 1
3 3 2 2 2 3 4 5 8 10 12 14 16 16 15 16 18 17 14 12 11 11 10 9 9 8 7 6 6 6 6 6 6 6 7 7 6 5 5 5 5 4 4 4
Wind_Direction
244 247 259 273 285 300 308 305 312 314 317 308 299 290 190 163 173 170 167 164 167 171 165 161 163 158 152 149 149 152 149 151 148 147 150 142 150 160 138 131 133 131 111 92
250 249 257 274 293 296 295 298 306 309 307 295 288 276 167 161 173 174 172 170 171 171 165 167 166 166 163 162 163 163 159 159 159 158 155 154 154 167 141 119 135 145 142 162
243 255 260 266 280 289 294 302 313 313 307 294 286 269 140 162 176 173 175 174 174 174 172 174 175 173 171 172 174 173 167 165 166 163 161 154 146 155 133 138 158 164 159 131
251 260 266 270 278 286 294 309 311 307 306 313 331 307 154 174 185 177 173 172 173 172 174 177 181 179 178 178 176 169 169 168 167 168 165 164 173 180 167 166 157 166 172 165
253 257 261 265 272 284 297 309 302 305 316 329 319 288 163 173 183 179 173 173 170 171 176 180 184 183 180 177 176 170 168 168 167 173 171 178 184 186 168 157 152 169 173 184
261 265 265 265 270 277 288 296 293 294 331 321 271 272 142 149 151 162 164 167 166 167 173 176 179 178 176 174 173 170 167 169 170 178 176 188 195 190 169 165 161 184 175 187
252 258 261 262 266 270 278 291 300 309 296 237 253 273 107 102 101 133 149 156 161 164 169 173 175 175 175 175 174 169 169 172 174 181 183 188 199 194 187 189 181 200 189 184
246 249 251 252 258 265 269 273 287 309 312 307 306 343 98 90 94 117 136 147 160 168 171 174 174 174 177 180 175 168 170 173 177 184 185 187 196 200 202 209 208 206 220 183
251 256 255 248 245 252 265 275 292 294 296 304 322 68 68 72 94 118 134 145 160 169 170 173 172 175 178 179 174 171 169 173 180 185 184 188 198 213 213 195 211 213 209 180
249 262 257 247 248 244 253 278 293 296 305 308 327 61 134 198 161 145 142 149 157 165 169 172 175 177 177 178 175 174 171 177 182 186 188 193 201 208 211 216 216 216 204 196
236 252 261 250 248 255 254 255 267 284 289 301 312 62 158 182 167 147 149 149 158 168 169 169 172 176 177 176 175 177 176 180 187 191 193 200 195 201 205 215 218 215 212 199
227 239 253 252 249 252 258 264 266 265 275 283 294 93 83 100 98 123 131 134 146 158 163 166 169 172 179 181 180 181 182 185 190 192 193 198 201 201 204 210 213 210 210 207
235 230 243 248 240 266 276 278 283 282 274 272 282 141 113 84 77 81 112 120 133 146 155 160 164 170 179 180 179 181 186 192 193 192 195 197 204 207 210 212 209 208 208 211
247 233 238 253 231 171 238 265 270 266 265 267 272 192 152 146 116 110 117 128 135 134 140 147 149 156 161 163 167 173 181 190 194 192 193 199 205 209 212 213 213 212 210 210
241 236 237 252 238 211 224 236 240 242 249 262 258 220 147 134 122 122 122 117 119 127 134 132 134 139 146 151 156 163 169 174 179 181 189 199 206 208 212 214 216 215 215 219
247 246 243 247 244 239 241 240 237 242 249 258 253 159 123 121 126 129 129 120 107 104 109 113 120 134 143 147 152 153 158 165 164 168 176 179 183 191 209 219 220 220 221 225
263 248 243 245 248 253 250 241 247 244 245 255 251 130 129 124 117 112 110 107 101 93 85 82 88 88 96 108 114 118 125 127 123 124 124 138 153 163 190 214 211 229 232 232
257 256 241 242 243 246 252 289 276 271 235 147 113 124 122 116 105 90 88 93 92 89 85 79 79 78 76 77 79 78 78 74 74 71 69 57 58 60 52 52 52 26 337 276
243 247 244 241 236 243 253 273 285 261 248 120 122 121 122 121 111 93 87 90 92 89 84 80 78 78 73 72 75 76 70 68 66 60 54 49 45 47 52 40 25 20 358 325
212 222 239 239 239 241 233 208 302 265 214 102 117 133 140 146 130 115 101 94 91 88 85 83 80 78 73 70 73 76 71 64 59 57 56 54 49 42 46 40 25 9 347 329
207 216 227 235 237 231 58 90 209 222 150 104 117 129 146 140 117 123 115 106 100 96 91 86 82 77 72 71 74 75 71 67 63 59 55 48 42 42 47 37 18 358 343 326
235 218 223 230 232 217 47 54 31 88 99 107 119 121 116 110 116 121 118 114 110 103 97 93 88 82 76 72 73 74 67 62 61 57 52 46 34 28 31 17 359 340 325 314
344 349 317 340 90 80 87 110 170 166 126 118 118 119 123 124 125 123 120 116 109 104 100 98 95 89 79 73 73 73 66 58 53 51 45 36 26 13 6 348 335 321 318 327
340 354 54 95 80 53 55 73 84 104 100 108 118 125 127 126 126 124 120 115 111 108 104 99 93 89 83 75 72 74 69 57 47 38 25 1 346 353 357 337 335 343 355 357
255 186 109 95 126 135 71 57 85 91 99 103 112 119 124 125 125 123 119 116 112 105 98 95 93 91 86 80 71 64 56 41 26 10 352 340 346 1 341 323 321 325 336 330
54 46 53 96 124 114 111 102 92 96 101 109 111 111 115 120 121 119 116 112 109 104 101 97 93 89 85 78 71 59 45 29 9 0 354 344 344 353 342 334 329 307 287 249
Height
1489 1489 1485 1477 1472 1471 1471 1472 1472 1467 1460 1463 1465 1466 1468 1472 1477 1481 1485 1489 1493 1496 1500 1503 1506 1509 1513 1516 1520 1524 1527 1532 1535 1538 1541 1544 1547 1550 1551 1552 1553 1554 1555 1555
1487 1484 1475 1469 1468 1468 1469 1472 1470 1463 1456 1459 1462 1463 1464 1470 1475 1479 1483 1487 1492 1496 1499 1502 1505 1508 1511 1515 1519 1523 1527 1530 1534 1537 1540 1543 1547 1549 1551 1552 1553 1554 1554 1555
1483 1475 1467 1467 1468 1470 1468 1469 1468 1465 1457 1454 1460 1467 1467 1470 1473 1477 1481 1485 1489 1493 1497 1500 1503 1507 1510 1514 1517 1521 1525 1529 1532 1536 1540 1543 1546 1548 1550 1551 1552 1553 1554 1555
1473 1467 1465 1466 1467 1466 1470 1460 1460 1461 1466 1468 1468 1483 1475 1469 1471 1473 1477 1482 1487 1491 1495 1498 1501 1505 1508 1512 1516 1519 1523 1527 1531 1534 1538 1541 1544 1547 1549 1550 1552 1553 1554 1554
1471 1465 1464 1466 1464 1462 1463 1457 1458 1462 1471 1479 1480 1479 1475 1465 1469 1469 1473 1478 1483 1488 1492 1496 1499 1502 1506 1510 1514 1517 1521 1525 1529 1533 1536 1540 1544 1546 1548 1550 1551 1552 1553 1554
1464 1460 1458 1458 1456 1456 1456 1458 1458 1463 1479 1506 1489 1481 1476 1463 1463 1464 1469 1475 1481 1486 1490 1494 1498 1501 1505 1508 1512 1516 1519 1523 1527 1531 1535 1539 1542 1545 1547 1549 1550 1551 1552 1553
1470 1461 1455 1454 1457 1456 1457 1470 1480 1484 1496 1501 1475 1474 1470 1458 1457 1460 1466 1473 1479 1484 1489 1493 1497 1500 1503 1507 1511 1514 1518 1522 1526 1529 1533 1537 1541 1543 1545 1547 1549 1550 1551 1551
1472 1469 1454 1452 1456 1459 1458 1464 1483 1495 1491 1479 1471 1477 1466 1456 1458 1461 1466 1472 1478 1483 1488 1491 1495 1499 1502 1506 1509 1512 1516 1520 1524 1528 1531 1535 1539 1541 1544 1546 1548 1549 1550 1551
1464 1464 1449 1447 1447 1450 1458 1459 1456 1471 1473 1478 1479 1474 1468 1460 1461 1462 1466 1471 1476 1481 1486 1490 1494 1498 1501 1505 1508 1511 1514 1518 1522 1526 1530 1533 1537 1540 1542 1544 1546 1547 1549 1549
1452 1460 1448 1445 1445 1445 1449 1452 1458 1469 1484 1489 1481 1482 1484 1470 1464 1463 1465 1470 1475 1480 1484 1488 1493 1496 1500 1504 1507 1511 1513 1517 1520 1524 1528 1531 1534 1537 1540 1542 1544 1545 1546 1547
1444 1455 1452 1447 1452 1455 1455 1457 1458 1461 1465 1482 1488 1485 1465 1465 1462 1462 1464 1469 1473 1478 1482 1486 1491 1495 1499 1503 1506 1509 1512 1515 1518 1522 1525 1529 1532 1534 1537 1539 1540 1542 1543 1544
1435 1445 1453 1448 1443 1443 1451 1455 1457 1470 1471 1468 1474 1481 1459 1460 1461 1462 1463 1468 1472 1476 1480 1484 1489 1493 1497 1501 1504 1507 1510 1513 1516 1519 1523 1526 1529 1531 1533 1535 1537 1538 1539 1540
1432 1443 1459 1458 1455 1454 1457 1453 1455 1457 1462 1466 1474 1478 1460 1460 1462 1465 1465 1469 1473 1476 1479 1483 1487 1491 1495 1499 1502 1505 1508 1511 1514 1517 1520 1522 1525 1528 1530 1532 1533 1535 1536 1537
1431 1438 1449 1458 1458 1460 1468 1461 1456 1461 1467 1465 1465 1467 1464 1463 1464 1467 1467 1470 1473 1476 1479 1482 1485 1489 1493 1496 1500 1503 1506 1509 1512 1514 1517 1519 1521 1524 1526 1528 1530 1531 1532 1533
1429 1437 1438 1437 1438 1445 1451 1452 1451 1455 1455 1458 1456 1457 1460 1461 1463 1467 1468 1470 1473 1476 1479 1481 1485 1488 1491 1494 1497 1500 1504 1507 1509 1512 1513 1515 1518 1520 1522 1524 1525 1527 1528 1529
1431 1435 1436 1439 1436 1438 1443 1441 1442 1444 1443 1444 1447 1454 1456 1461 1465 1467 1470 1471 1474 1477 1480 1482 1484 1487 1490 1493 1496 1498 1501 1505 1507 1508 1510 1512 1514 1516 1518 1520 1521 1522 1523 1524
1438 1440 1442 1444 1436 1439 1447 1438 1438 1437 1434 1438 1447 1452 1456 1461 1465 1468 1470 1473 1476 1479 1481 1483 1485 1487 1489 1492 1494 1497 1500 1503 1505 1506 1508 1509 1510 1512 1514 1515 1516 1518 1518 1519
1445 1447 1443 1442 1445 1461 1441 1429 1430 1432 1432 1434 1441 1448 1455 1463 1468 1472 1474 1476 1478 1481 1483 1485 1486 1488 1490 1492 1494 1496 1498 1500 1502 1503 1504 1506 1507 1508 1510 1511 1512 1514 1514 1515
1440 1447 1447 1443 1448 1447 1439 1434 1434 1437 1438 1435 1442 1449 1457 1463 1470 1475 1478 1479 1481 1483 1485 1487 1488 1489 1491 1492 1494 1495 1497 1499 1501 1502 1503 1504 1506 1507 1507 1509 1509 1510 1511 1511
1437 1441 1446 1441 1447 1454 1443 1435 1435 1437 1447 1440 1444 1451 1456 1462 1468 1479 1481 1482 1484 1486 1487 1489 1491 1492 1493 1495 1496 1497 1498 1500 1501 1502 1503 1504 1505 1506 1506 1507 1507 1508 1509 1509
1437 1440 1440 1438 1441 1440 1439 1438 1438 1453 1454 1445 1448 1452 1457 1460 1467 1477 1481 1484 1487 1489 1490 1492 1493 1495 1496 1498 1499 1499 1501 1502 1504 1505 1505 1505 1505 1506 1506 1506 1506 1507 1507 1507
1437 1437 1436 1434 1442 1451 1443 1441 1449 1451 1447 1447 1450 1455 1460 1465 1471 1477 1482 1487 1490 1492 1494 1495 1496 1498 1499 1501 1501 1502 1503 1505 1506 1506 1506 1506 1506 1506 1506 1506 1506 1505 1505 1505
1445 1443 1443 1443 1448 1447 1444 1447 1448 1448 1448 1450 1453 1458 1463 1468 1474 1480 1485 1489 1492 1494 1497 1499 1499 1501 1503 1504 1504 1505 1506 1507 1508 1508 1507 1507 1506 1506 1506 1505 1505 1504 1504 1503
1448 1444 1446 1446 1446 1446 1447 1446 1448 1449 1451 1453 1456 1460 1465 1470 1477 1482 1487 1492 1495 1497 1499 1501 1503 1504 1505 1507 1507 1508 1508 1509 1509 1508 1508 1508 1507 1507 1506 1505 1505 1504 1503 1502
1448 1446 1445 1446 1448 1447 1447 1449 1450 1451 1453 1456 1460 1464 1468 1473 1479 1485 1490 1494 1497 1500 1502 1504 1505 1507 1508 1509 1510 1510 1510 1510 1510 1510 1510 1509 1509 1508 1506 1505 1504 1503 1501 1500
1446 1448 1448 1449 1449 1448 1450 1450 1451 1454 1456 1459 1463 1469 1474 1477 1482 1487 1492 1496 1499 1502 1504 1506 1508 1509 1510 1511 1512 1512 1512 1512 1511 1511 1511 1510 1509 1507 1506 1504 1503 1501 1500 1497